Location: ??????
(56.0120°N, 39.1740°E)
Time: 20:52:03
(UTC+00:00)

Cosmos 1536 Rocket - Pass Details

Date: 14 April 2026
Orbit: 598 x 625 km, 82.5° (Epoch: 16 May)

Event Time Altitude Azimuth Distance (km) Brightness Sun altitude
Rises 19:38:28 0° 352° (N) 2,867 8.2 -20.8°
Reaches altitude 10° 19:40:52 10° 1° (N) 1,956 7.0 -21.0°
Maximum altitude 19:44:50 34° 68° (ENE) 990 4.5 -21.2°
Enters shadow 19:45:24 33° 85° (E) 1,018 4.4 -21.3°
